sat.trackr.live / text

‹ back to catalog

SGDC

NORAD 42692 · 2017-023B

PAYLOAD ACTIVE UNKNOWN

§ Identity

Operator
Country
BRAZ
Launch date
2017-05-04
Launch site
FRGUI
Launch vehicle
Mass (kg)
RCS (m²)

Purposes: comms

External: N2YO · Heavens-Above · Gunter

§ Orbital elements

Epoch: 2026-09-03T06:09:50.118048Z

Period
1,436.12 min
Inclination
0.0170°
Eccentricity
0.0002259
Mean motion
1.00270035 rev/d
Perigee alt
35,777.6 km
Apogee alt
35,796.6 km
Semi-major
42,165.2 km
B*
0.0000e+0
RAAN
123.7664°
Arg perigee
51.4654°
Mean anomaly
184.7704°
Rev number
3,418

§ Raw data

SGDC1 42692U 17023B   26246.25683007  .00000000  00000+0  00000+0 0  99952 42692   0.0170 123.7664 0002259  51.4654 184.7704  1.00270035 34180

JSON: /api/v1/satellites/42692 · /tle

For live sub-satellite position, see the globe view (requires WebGL).

§ Visibility from observer

Set your observer location to see the next 7 days of passes ≥ 10°. The values pass through the URL so the page stays shareable.

No JS? Fill the form by hand. The geolocation button needs JavaScript.